Погода в Летнем-2

Россия / Республика Карелия     64°16′21″N   34°13′22″E
темп.,
°C
ветер,
м/с
пор.,
м/с
влажн.,
%
обл.,
%
осадки,
мм/ч
давл.,
гПа
погр.,
м
18 апреля, вс
вс1800:00+1с119714 0.0 103328
03:000св129780 0.0 103440
06:00+2в268999 0.0 1034204
09:00+4в357868 0.0 1035389
12:00+7в336155 0.0 10351073
15:00+8всв34546 0.0 10351174
18:00+6всв33585 0.0 1035851
21:00+2всв24760 0.0 103687
19 апреля, пн
пн1900:00+1вюв11790 0.0 103612
03:000ююв11805 0.0 103610
06:000ю11795 0.0 103610
09:00+5ю126510 0.0 1036353
12:00+8ююз23565 0.0 1035817
15:00+9ю334868 0.0 1034912
18:00+7ююв245386 0.0 1033412
21:00+4ю2366100 0.0 103360
20 апреля, вт
вт2000:00+2ю2273100 0.0 103245
03:00+1ююз237795 0.0 103244
06:00+1ю2579100 0.0 103190
09:00+5ю356489 0.0 1030337
12:00+8ю45485 0.0 10291031
15:00+9ююв45443 0.0 10271276
18:00+8ююв46495 0.0 10251284
21:00+4ю23696 0.0 102462
21 апреля, ср
ср2100:00+2юв227477 0.0 102331
03:00+2ююв2477100 0.0 102279
06:00+2ююв2477100 0.0 1020110
09:00+6юв2561100 0.0 1018307
12:00+7вюв3454100 0.0 1015804
15:00+9вюв4641100 0.0 10121388
18:00+7юв3646100 0.0 10091510
21:00+3вюв2798100 0.8 1008449
22 апреля, чт
чт2200:00+2ююв2497100 0.3 1007386
03:00+2ююв1399100 0.4 1006286
06:00+2ю1199100 0.4 1006205
09:00+2з0199100 0.6 1006215
12:00+2з1299100 0.6 1007285
15:00+2з2499100 1.1 1009416
18:00+2з3698100 0.4 1011346
21:00+2зсз3797100 0.5 1014491